Theta_e
347 347 345 344 343 342 341 336 327 318 314 312 312 312 312 312 312 312 311 309 310 308 310 310 310 308 308 307 307 308 309 309 309 309 310 310 311 313 314 316 319 316 320
344 341 340 341 342 340 337 331 321 314 312 312 312 312 313 312 312 313 312 311 311 309 309 306 308 307 304 307 308 309 310 311 311 311 311 312 312 313 315 316 318 320 319
343 338 335 336 338 336 329 322 316 313 312 312 313 312 313 313 313 312 312 311 311 310 308 307 307 306 306 307 309 309 309 310 311 310 311 311 312 313 314 314 315 319 320
338 336 333 335 331 326 321 318 313 313 312 313 312 313 314 313 312 312 313 312 311 309 306 302 302 305 306 307 306 307 308 309 309 310 311 311 311 313 313 311 312 315 319
334 332 330 327 324 322 319 315 314 313 313 314 314 315 313 312 311 313 311 310 308 307 306 304 305 305 299 299 300 304 305 306 307 308 309 310 312 311 310 310 310 312 316
331 329 327 325 323 320 318 315 314 314 314 314 315 314 313 311 313 312 309 305 303 305 305 305 305 304 305 304 301 300 301 302 304 306 307 307 308 308 308 307 308 310 311
328 327 324 323 323 320 318 317 315 314 314 314 312 311 311 310 309 306 304 300 300 304 304 304 304 304 303 304 303 302 302 302 302 303 304 305 305 305 304 305 306 307 308
325 324 323 322 322 319 318 316 313 313 313 314 315 315 311 309 309 305 299 299 298 303 303 303 303 304 303 303 302 302 302 302 302 302 302 303 302 301 301 303 303 304 306
323 322 321 320 319 318 316 315 314 313 312 312 311 311 312 311 307 304 300 299 302 302 302 303 303 303 302 300 300 300 301 301 301 300 299 299 299 299 300 301 302 304 305
320 319 318 317 316 316 316 314 313 312 311 311 311 310 311 310 305 302 299 299 300 301 302 302 302 301 300 299 299 299 300 300 300 299 299 299 299 300 300 301 302 304 305
309 309 308 308 309 309 308 310 309 310 310 309 309 309 306 302 300 300 299 299 300 301 301 301 302 301 300 299 299 298 299 299 299 299 298 298 299 300 302 303 304 304 305
306 307 306 307 307 307 307 306 306 306 306 307 305 305 302 301 301 299 299 298 297 297 299 300 300 299 299 299 298 297 298 297 298 298 299 298 299 299 300 301 302 303 304
304 303 304 301 303 301 302 302 300 300 301 301 302 302 302 301 299 298 298 297 297 296 296 297 297 297 297 297 297 298 298 298 299 299 299 299 298 298 298 298 300 302 303
300 300 300 300 300 301 301 300 299 298 299 299 299 299 298 298 298 297 295 294 294 294 295 295 297 297 296 296 297 297 298 299 298 298 299 299 298 297 297 299 300 302 304
298 298 298 298 299 299 297 297 297 297 298 297 296 296 295 296 296 295 296 297 295 297 298 297 295 296 296 296 296 296 295 296 296 298 298 298 297 297 298 299 300 302 303
295 295 296 298 298 298 299 298 297 296 296 296 296 296 296 294 293 296 297 296 296 296 297 294 296 295 294 293 294 294 294 295 296 297 297 297 297 297 298 298 300 302 303
294 294 294 295 295 296 297 297 297 297 296 295 295 296 296 295 294 295 295 297 297 298 294 296 294 293 293 294 294 294 295 295 295 296 296 296 297 297 297 298 299 301 303
294 292 294 294 293 294 295 296 296 296 296 296 295 294 294 295 296 296 296 297 295 295 295 294 293 293 293 294 293 294 293 294 294 295 295 296 296 296 297 297 299 301 303
294 292 292 293 293 293 294 294 294 295 296 296 295 295 293 295 296 295 294 294 294 293 293 293 293 292 294 295 294 294 293 293 293 294 295 296 297 296 296 297 299 301 302
295 293 292 292 292 292 293 293 293 294 294 294 294 293 293 294 294 293 292 292 292 293 293 292 292 292 293 295 292 291 291 292 293 295 295 295 296 297 297 297 299 301 302
294 294 293 293 292 292 292 292 293 293 293 293 293 292 294 294 294 292 292 291 290 291 292 292 291 291 291 291 291 290 291 291 293 293 294 295 296 297 298 298 298 300 301
293 294 293 293 292 291 291 292 292 292 292 292 293 292 294 293 292 291 290 290 289 290 290 290 291 291 291 290 290 290 289 290 291 292 294 295 296 296 297 298 298 299 300
293 292 292 292 291 290 291 291 291 291 291 291 292 292 293 293 291 290 289 289 289 290 291 290 290 291 290 289 290 290 290 290 290 292 294 294 295 297 297 298 298 299 300
292 291 291 291 291 290 291 290 291 291 290 291 291 291 291 291 290 289 289 289 290 290 289 290 291 290 290 290 290 290 290 290 289 291 292 294 295 296 297 297 298 298 299
292 291 290 290 290 290 290 290 290 290 290 290 290 291 291 290 290 289 290 290 290 290 291 291 291 291 291 291 290 290 290 290 290 290 291 293 294 295 296 297 298 299 299
292 290 290 289 290 289 289 289 289 289 289 289 289 290 290 290 289 290 290 290 291 291 292 293 293 292 292 293 292 292 291 291 290 290 290 293 293 295 295 296 298 299 300
Wind_Speed
31 30 29 30 28 27 28 29 26 24 23 20 16 12 9 7 4 3 3 6 6 7 9 9 11 13 11 12 12 11 12 14 20 23 22 21 23 19 18 16 15 17 16
25 26 27 30 32 31 29 26 25 24 22 19 15 12 8 6 6 4 3 5 7 9 10 14 13 12 17 14 13 13 13 14 16 21 21 21 19 19 18 19 15 13 18
22 22 24 28 29 28 28 26 26 26 23 18 15 11 7 7 7 5 6 8 9 11 13 14 15 16 16 14 14 14 14 15 15 17 19 17 18 16 16 14 16 12 14
19 21 24 27 26 26 26 27 27 25 24 19 15 10 9 8 5 6 8 10 13 14 17 19 18 17 15 15 14 13 14 17 16 16 17 17 16 13 13 16 15 10 15
19 20 22 23 23 24 26 27 27 23 20 15 15 13 9 7 6 9 11 13 14 15 16 16 15 17 22 19 16 13 13 14 16 15 16 15 13 14 13 13 13 12 12
20 20 20 22 22 23 25 28 26 24 21 18 15 13 12 5 11 14 15 16 15 14 15 15 15 17 18 20 19 18 19 15 16 15 15 15 14 13 11 14 13 14 12
21 22 24 23 22 23 25 22 24 24 21 16 13 11 10 11 13 15 16 18 16 15 14 15 15 13 18 18 17 20 18 19 21 18 17 15 14 15 15 15 15 17 17
19 20 19 21 20 19 20 22 22 21 23 21 18 17 15 13 16 16 16 18 17 15 17 16 15 16 14 18 19 18 17 17 16 17 15 16 16 15 17 18 20 21 20
28 25 24 27 32 33 33 27 21 18 16 17 15 14 14 16 17 19 19 14 14 16 17 17 18 18 17 20 20 19 19 18 17 19 18 19 23 24 25 24 19 19 19
21 21 24 26 25 26 25 23 21 19 13 12 10 10 15 18 19 19 19 14 16 15 17 17 18 22 22 20 20 19 19 18 17 16 20 22 22 19 19 21 15 19 18
24 22 21 23 24 20 16 14 10 9 7 6 9 13 19 17 16 18 18 18 14 17 17 17 15 21 20 21 23 23 21 23 21 22 21 19 18 16 14 16 15 16 16
30 29 23 19 16 12 7 4 3 4 7 10 12 14 13 13 12 15 20 21 21 20 19 18 19 26 25 25 26 24 24 28 24 21 19 19 18 15 16 15 16 19 17
25 22 19 14 12 5 5 4 6 6 6 5 5 6 6 8 10 17 20 21 21 22 18 22 28 29 28 28 22 20 22 19 19 20 18 19 18 18 18 17 15 16 18
22 18 16 13 9 7 6 5 3 3 4 5 7 9 8 10 11 12 15 15 17 16 17 20 23 21 18 18 18 17 16 18 20 19 19 19 19 18 18 16 15 14 14
22 20 19 15 13 9 8 7 7 6 7 6 6 10 11 11 12 20 21 17 18 19 22 20 15 13 14 14 15 15 15 15 19 18 16 17 17 17 16 14 14 13 13
17 16 15 14 11 8 8 10 15 14 14 11 11 13 14 15 20 18 17 20 20 20 20 16 13 14 14 14 14 15 14 14 16 16 17 17 17 16 16 14 14 13 13
18 15 14 14 13 12 12 10 10 12 17 18 17 15 16 17 18 18 19 20 19 19 14 15 14 14 15 16 17 19 18 14 15 15 16 16 16 15 15 14 12 11 11
18 18 14 14 14 12 11 10 10 11 12 10 13 18 19 20 19 17 17 18 11 11 13 14 15 16 16 17 18 18 17 17 16 18 17 16 15 14 13 12 12 11 10
17 18 14 13 12 12 11 11 11 11 12 13 13 13 17 22 23 20 18 15 14 14 14 16 15 16 17 18 19 18 17 18 18 18 16 16 16 14 14 12 12 12 11
15 19 16 13 13 12 12 13 13 13 14 16 16 16 19 24 22 18 15 15 16 16 15 17 17 17 18 18 17 17 16 15 17 15 17 16 16 15 14 11 10 11 9
16 16 19 16 15 15 15 14 14 15 16 17 17 18 24 25 23 21 19 17 17 17 18 19 18 18 18 17 18 16 17 16 15 18 18 15 15 13 13 12 11 10 9
19 18 17 16 14 15 15 15 15 16 18 20 22 22 26 22 21 22 20 19 19 19 19 20 21 20 19 18 18 17 17 16 16 17 13 16 14 14 13 12 11 11 11
22 21 20 18 17 18 17 18 18 19 20 21 22 26 27 25 23 23 21 20 20 20 20 20 21 20 19 19 19 19 19 18 15 12 16 15 15 13 14 12 12 10 10
23 21 20 18 18 18 18 19 19 20 20 21 22 24 26 26 25 24 22 21 21 21 20 20 21 22 22 21 21 20 19 18 15 18 19 12 15 15 15 13 11 10 10
21 20 19 18 18 18 18 18 18 19 19 20 24 27 29 28 25 23 21 21 22 22 23 23 24 24 22 20 20 20 20 20 19 18 21 20 12 16 12 14 10 10 11
21 20 18 17 16 17 17 18 19 20 21 22 25 29 30 29 26 24 22 24 25 26 25 24 23 22 21 20 20 20 17 17 18 18 22 22 17 15 14 13 15 11 10
Wind_Direction
215 213 199 192 197 197 196 196 196 192 190 189 189 187 195 219 253 277 293 312 333 325 322 322 321 319 313 315 305 305 299 294 291 298 303 308 313 316 319 317 319 323 323
198 194 190 194 193 190 191 193 194 192 190 190 189 193 188 227 244 272 301 293 309 314 310 316 311 313 314 312 308 307 298 298 297 302 311 315 317 320 320 323 316 319 321
189 182 180 181 183 186 189 194 195 195 191 192 191 192 202 221 247 275 297 310 311 313 313 310 311 313 313 308 313 310 301 295 293 295 300 309 309 320 315 323 321 320 324
182 180 180 182 184 188 189 192 188 186 189 189 193 210 214 219 248 280 296 304 309 307 305 306 306 307 306 306 310 311 310 301 304 302 302 306 309 308 317 324 328 322 311
183 179 178 181 184 187 190 189 186 190 191 190 196 204 207 235 256 287 308 314 309 306 306 307 307 290 297 296 298 298 309 303 301 301 301 303 297 314 313 315 317 317 315
183 183 176 178 185 185 191 194 192 189 192 200 203 207 221 220 270 289 300 303 304 307 308 305 304 306 310 305 314 304 292 297 299 297 295 295 298 306 305 313 315 309 315
183 182 185 184 183 188 190 184 190 193 195 189 185 203 230 253 270 289 299 309 306 297 301 301 300 295 293 299 300 315 320 306 306 303 294 294 296 293 301 306 303 298 293
185 182 181 180 177 176 172 172 179 186 192 204 216 228 241 267 285 300 307 308 297 288 291 290 285 283 291 287 292 296 296 298 291 286 275 285 284 290 297 293 296 298 294
186 191 191 187 185 188 191 196 194 199 203 215 231 256 264 274 296 316 313 306 296 288 287 290 289 283 279 280 285 289 288 290 293 293 288 290 296 303 295 284 286 289 288
190 193 197 192 193 194 192 188 197 199 210 225 243 285 298 304 304 300 296 294 288 288 288 288 291 293 285 284 280 283 284 290 292 292 296 294 293 297 302 302 281 274 279
148 145 136 139 145 142 141 145 163 179 200 257 283 289 297 297 299 302 298 292 287 288 283 286 284 283 281 279 277 276 274 275 283 288 293 293 288 285 283 279 272 263 267
114 113 110 105 101 102 102 65 28 313 293 277 278 286 293 295 298 293 285 284 278 283 281 279 274 263 267 272 277 279 271 277 284 283 284 288 290 284 279 265 259 256 248
87 86 89 73 71 43 39 9 10 345 339 323 308 298 295 270 272 275 280 286 283 276 278 273 270 277 279 281 282 277 275 278 279 277 280 282 284 285 280 283 270 278 277
84 80 79 69 50 54 65 61 44 10 334 342 317 307 303 301 302 295 296 303 304 301 293 293 297 305 310 307 306 296 280 273 268 272 278 282 282 278 277 277 269 252 263
69 72 62 61 56 29 42 48 47 4 336 318 315 312 310 307 292 284 293 299 296 299 307 310 311 305 301 302 300 296 282 276 276 269 273 282 280 275 271 273 261 262 260
59 52 60 59 40 28 28 16 359 4 352 346 341 330 318 304 301 302 296 296 300 308 310 298 300 303 302 303 303 299 301 295 282 267 267 273 271 271 270 271 257 259 254
47 49 38 46 41 21 20 15 15 352 344 343 344 341 329 318 309 304 296 292 299 308 303 292 299 305 305 303 303 303 299 291 293 276 263 264 265 265 267 269 257 257 257
35 34 31 29 24 16 9 4 357 350 342 333 324 324 329 332 327 313 304 302 310 297 292 297 307 298 305 307 303 298 302 281 279 268 264 265 264 264 263 261 256 252 256
25 24 28 24 11 12 0 357 352 348 341 336 330 328 320 331 334 329 325 314 297 299 302 305 300 295 306 310 306 300 284 287 271 266 266 262 261 262 260 259 252 250 251
20 6 28 24 13 4 357 355 348 345 345 341 337 331 326 334 338 332 322 307 303 304 303 297 295 295 302 302 296 286 287 281 269 266 262 258 261 260 256 251 247 244 243
19 17 15 16 12 1 354 350 345 344 342 337 336 332 337 332 333 329 326 311 304 302 299 297 292 293 296 290 287 280 275 278 267 263 260 257 255 251 255 250 242 237 239
19 17 11 8 5 355 354 350 346 345 343 341 337 336 339 335 328 325 316 310 305 300 299 296 294 294 294 286 284 280 273 270 263 264 250 257 254 249 245 239 236 233 236
14 10 7 3 358 355 355 352 351 344 342 340 333 333 336 331 325 320 314 309 306 306 305 300 299 296 291 286 283 276 271 269 263 257 246 249 244 244 239 236 232 232 234
10 5 1 356 350 355 349 349 344 342 338 333 327 328 329 327 325 319 316 314 315 314 308 304 300 296 294 287 283 277 268 266 265 239 240 239 241 233 232 231 222 232 228
6 3 359 354 351 348 346 343 340 337 334 331 330 336 335 330 325 323 323 322 320 317 314 309 307 303 296 288 277 274 266 262 259 248 228 224 224 232 211 233 213 234 224
5 2 357 353 350 346 343 341 338 337 334 333 333 340 339 335 330 328 328 327 324 320 317 314 314 310 300 286 276 276 263 256 252 249 231 219 224 217 224 230 213 218 210